QPF
0.01 0.01 0.02 0.01 0.01 0.01 0.01 0.02 0.03 0.02 0.02 0.03 0.03 0.06 0.09 0.09 0.07 0.05 0.04 0.03 0.02 0.01 0.01 0.02 0.02 0.02 0.03 0.03 0.03 0.04 0.04 0.04 0.04 0.04 0.03 0.03 0.04 0.05 0.03 0.02 0.02 0.03 0.04 0.07
0.01 0.01 0.01 0.01 0.01 0.01 0.01 0.02 0.02 0.02 0.03 0.03 0.03 0.05 0.07 0.08 0.06 0.04 0.05 0.04 0.04 0.03 0.03 0.04 0.04 0.04 0.06 0.03 0.03 0.02 0.02 0.02 0.02 0.01 0.01 0.01 0.02 0.03 0.03 0.04 0.05 0.05 0.05 0.07
0.03 0.03 0.02 0.02 0.01 0.01 0.01 0.02 0.01 0.03 0.04 0.03 0.04 0.04 0.04 0.04 0.04 0.04 0.06 0.07 0.07 0.10 0.14 0.18 0.13 0.09 0.08 0.07 0.07 0.04 0.02 0.02 0.01 0.00 0.01 0.01 0.02 0.04 0.04 0.05 0.05 0.06 0.06 0.05
0.03 0.02 0.04 0.03 0.02 0.01 0.02 0.02 0.02 0.03 0.04 0.05 0.05 0.04 0.03 0.04 0.04 0.05 0.06 0.09 0.11 0.17 0.15 0.12 0.08 0.08 0.08 0.08 0.08 0.04 0.02 0.01 0.01 0.01 0.00 0.01 0.02 0.02 0.02 0.02 0.02 0.04 0.06 0.06
0.03 0.02 0.03 0.02 0.02 0.02 0.02 0.02 0.02 0.03 0.05 0.09 0.12 0.05 0.03 0.04 0.04 0.04 0.06 0.11 0.13 0.15 0.10 0.06 0.04 0.06 0.07 0.05 0.03 0.02 0.01 0.01 0.01 0.01 0.01 0.01 0.02 0.02 0.01 0.01 0.01 0.01 0.02 0.02
0.03 0.02 0.02 0.03 0.03 0.02 0.02 0.04 0.04 0.04 0.05 0.07 0.08 0.05 0.04 0.03 0.03 0.04 0.05 0.08 0.11 0.14 0.11 0.07 0.05 0.04 0.03 0.03 0.03 0.02 0.01 0.00 0.00 0.01 0.01 0.01 0.01 0.01 0.01 0.01 0.01 0.02 0.02 0.02
0.02 0.03 0.03 0.04 0.04 0.02 0.03 0.04 0.05 0.07 0.10 0.12 0.10 0.06 0.04 0.02 0.02 0.05 0.07 0.06 0.06 0.12 0.10 0.06 0.05 0.04 0.02 0.02 0.02 0.01 0.01 0.01 0.00 0.01 0.01 0.01 0.01 0.00 0.01 0.01 0.01 0.02 0.02 0.02
0.02 0.03 0.04 0.02 0.02 0.02 0.03 0.01 0.03 0.05 0.04 0.05 0.05 0.04 0.03 0.02 0.02 0.04 0.05 0.05 0.04 0.08 0.10 0.06 0.05 0.04 0.03 0.02 0.01 0.01 0.02 0.02 0.01 0.01 0.01 0.00 0.00 0.00 0.01 0.01 0.01 0.01 0.01 0.02
0.03 0.03 0.02 0.01 0.02 0.02 0.02 0.02 0.03 0.03 0.03 0.03 0.04 0.04 0.03 0.03 0.03 0.04 0.04 0.03 0.02 0.05 0.07 0.07 0.07 0.07 0.04 0.03 0.02 0.02 0.02 0.02 0.01 0.01 0.01 0.01 0.01 0.01 0.01 0.00 0.00 0.00 0.01 0.01
0.02 0.02 0.02 0.03 0.04 0.03 0.02 0.03 0.03 0.02 0.02 0.03 0.04 0.04 0.03 0.03 0.02 0.03 0.04 0.02 0.02 0.04 0.06 0.10 0.11 0.10 0.08 0.06 0.04 0.04 0.04 0.03 0.01 0.01 0.02 0.01 0.01 0.01 0.01 0.01 0.00 0.00 0.00 0.01
0.03 0.03 0.03 0.03 0.03 0.02 0.02 0.02 0.02 0.02 0.02 0.02 0.02 0.03 0.03 0.03 0.02 0.02 0.02 0.02 0.03 0.06 0.08 0.12 0.13 0.13 0.13 0.11 0.09 0.07 0.06 0.03 0.01 0.01 0.02 0.02 0.01 0.01 0.01 0.01 0.01 0.01 0.01 0.01
0.05 0.04 0.04 0.04 0.03 0.01 0.01 0.01 0.01 0.01 0.01 0.01 0.01 0.02 0.03 0.03 0.02 0.01 0.01 0.02 0.02 0.03 0.05 0.09 0.11 0.11 0.10 0.08 0.08 0.07 0.04 0.02 0.01 0.01 0.01 0.01 0.01 0.01 0.01 0.01 0.01 0.01 0.01 0.01
0.07 0.07 0.05 0.04 0.03 0.01 0.01 0.01 0.01 0.01 0.01 0.01 0.02 0.02 0.02 0.02 0.02 0.02 0.02 0.04 0.04 0.04 0.04 0.06 0.08 0.07 0.06 0.05 0.05 0.05 0.03 0.02 0.01 0.01 0.01 0.01 0.01 0.01 0.01 0.00 0.00 0.00 0.00 0.00
0.09 0.09 0.07 0.05 0.04 0.03 0.02 0.01 0.01 0.01 0.02 0.02 0.03 0.02 0.02 0.03 0.05 0.05 0.03 0.05 0.04 0.03 0.03 0.03 0.04 0.04 0.04 0.04 0.04 0.03 0.02 0.02 0.02 0.01 0.01 0.01 0.01 0.00 0.00 0.00 0.00 0.00 0.00 0.00
0.05 0.04 0.06 0.07 0.05 0.04 0.02 0.02 0.01 0.03 0.04 0.04 0.03 0.02 0.02 0.02 0.03 0.04 0.03 0.02 0.03 0.03 0.02 0.02 0.02 0.02 0.02 0.02 0.02 0.03 0.02 0.01 0.01 0.01 0.01 0.01 0.00 0.00 0.01 0.00 0.01 0.01 0.01 0.00
0.05 0.03 0.03 0.03 0.02 0.02 0.03 0.02 0.02 0.03 0.06 0.06 0.04 0.03 0.02 0.02 0.02 0.02 0.02 0.03 0.03 0.02 0.02 0.02 0.01 0.01 0.01 0.01 0.02 0.02 0.03 0.02 0.02 0.02 0.03 0.01 0.01 0.01 0.01 0.01 0.01 0.01 0.01 0.01
0.05 0.05 0.03 0.03 0.03 0.02 0.02 0.03 0.04 0.05 0.08 0.11 0.10 0.08 0.04 0.02 0.02 0.02 0.02 0.03 0.03 0.02 0.02 0.02 0.01 0.01 0.02 0.02 0.02 0.02 0.03 0.03 0.03 0.04 0.04 0.04 0.03 0.03 0.02 0.02 0.02 0.02 0.02 0.02
0.02 0.02 0.02 0.01 0.02 0.01 0.01 0.01 0.02 0.03 0.06 0.12 0.15 0.11 0.06 0.03 0.02 0.01 0.02 0.02 0.02 0.01 0.02 0.01 0.02 0.02 0.03 0.03 0.03 0.02 0.02 0.02 0.03 0.03 0.04 0.04 0.04 0.04 0.03 0.03 0.03 0.03 0.03 0.02
0.02 0.01 0.01 0.01 0.01 0.01 0.01 0.01 0.02 0.02 0.04 0.08 0.11 0.10 0.06 0.03 0.03 0.01 0.01 0.01 0.01 0.01 0.01 0.02 0.03 0.03 0.03 0.03 0.03 0.02 0.02 0.03 0.03 0.03 0.03 0.03 0.03 0.03 0.03 0.04 0.03 0.03 0.02 0.02
0.02 0.02 0.01 0.01 0.02 0.01 0.02 0.02 0.02 0.02 0.02 0.05 0.09 0.12 0.09 0.05 0.03 0.02 0.02 0.02 0.02 0.02 0.02 0.03 0.03 0.03 0.03 0.02 0.02 0.02 0.02 0.03 0.04 0.04 0.03 0.02 0.03 0.03 0.04 0.05 0.04 0.03 0.02 0.02
0.02 0.02 0.02 0.02 0.02 0.02 0.02 0.02 0.02 0.02 0.02 0.03 0.06 0.07 0.05 0.03 0.02 0.02 0.02 0.02 0.01 0.02 0.02 0.03 0.03 0.02 0.02 0.02 0.02 0.02 0.02 0.03 0.03 0.02 0.03 0.04 0.04 0.04 0.05 0.04 0.03 0.02 0.01 0.01
0.03 0.02 0.02 0.03 0.04 0.04 0.03 0.03 0.04 0.05 0.04 0.04 0.04 0.04 0.03 0.02 0.02 0.02 0.02 0.02 0.01 0.01 0.01 0.02 0.02 0.02 0.02 0.02 0.02 0.02 0.02 0.02 0.01 0.01 0.01 0.01 0.02 0.02 0.02 0.01 0.01 0.01 0.01 0.02
0.03 0.02 0.02 0.03 0.04 0.05 0.05 0.06 0.06 0.08 0.08 0.06 0.04 0.03 0.03 0.02 0.02 0.03 0.02 0.03 0.03 0.02 0.02 0.02 0.02 0.02 0.02 0.02 0.02 0.02 0.02 0.01 0.01 0.00 0.01 0.01 0.01 0.01 0.01 0.01 0.01 0.01 0.01 0.01
0.03 0.03 0.05 0.04 0.04 0.05 0.05 0.05 0.06 0.07 0.08 0.08 0.05 0.04 0.05 0.04 0.04 0.03 0.03 0.03 0.03 0.03 0.03 0.03 0.03 0.03 0.02 0.01 0.02 0.02 0.02 0.01 0.01 0.01 0.01 0.01 0.01 0.01 0.01 0.01 0.01 0.01 0.01 0.02
0.03 0.04 0.05 0.07 0.07 0.06 0.05 0.06 0.07 0.07 0.08 0.08 0.09 0.07 0.06 0.05 0.05 0.04 0.04 0.05 0.05 0.04 0.04 0.04 0.04 0.03 0.03 0.02 0.02 0.02 0.02 0.02 0.01 0.01 0.01 0.01 0.01 0.01 0.01 0.01 0.01 0.01 0.01 0.01
0.03 0.03 0.04 0.05 0.06 0.07 0.09 0.11 0.12 0.12 0.13 0.13 0.11 0.08 0.08 0.06 0.05 0.06 0.06 0.05 0.05 0.04 0.03 0.03 0.03 0.03 0.03 0.02 0.02 0.02 0.01 0.01 0.01 0.01 0.01 0.01 0.01 0.01 0.01 0.01 0.00 0.00 0.00 0.00
0.03 0.03 0.04 0.05 0.05 0.05 0.05 0.10 0.16 0.18 0.17 0.18 0.14 0.10 0.08 0.06 0.06 0.08 0.07 0.05 0.04 0.03 0.02 0.02 0.03 0.03 0.02 0.02 0.03 0.03 0.02 0.02 0.03 0.02 0.01 0.01 0.01 0.01 0.01 0.00 0.00 0.00 0.00 0.00
MSLP
1012.54 1012.69 1012.85 1013.00 1013.12 1013.17 1013.15 1013.05 1012.91 1012.74 1012.59 1012.51 1012.54 1012.69 1012.95 1013.32 1013.74 1014.17 1014.57 1014.89 1015.11 1015.23 1015.27 1015.28 1015.30 1015.36 1015.49 1015.71 1015.99 1016.30 1016.59 1016.83 1016.98 1017.01 1016.92 1016.73 1016.47 1016.19 1015.92 1015.67 1015.47 1015.29 1015.11 1014.89
1012.62 1012.65 1012.61 1012.49 1012.31 1012.07 1011.78 1011.49 1011.23 1011.05 1010.98 1011.07 1011.32 1011.73 1012.26 1012.87 1013.49 1014.09 1014.59 1014.97 1015.23 1015.38 1015.45 1015.49 1015.55 1015.67 1015.87 1016.15 1016.50 1016.86 1017.19 1017.45 1017.60 1017.62 1017.53 1017.33 1017.06 1016.77 1016.49 1016.24 1016.01 1015.81 1015.60 1015.35
1012.58 1012.48 1012.26 1011.94 1011.53 1011.06 1010.59 1010.17 1009.85 1009.69 1009.71 1009.94 1010.37 1010.98 1011.72 1012.51 1013.29 1013.99 1014.58 1015.02 1015.32 1015.49 1015.60 1015.68 1015.79 1015.96 1016.21 1016.53 1016.91 1017.29 1017.63 1017.89 1018.04 1018.06 1017.97 1017.78 1017.54 1017.28 1017.02 1016.79 1016.58 1016.38 1016.16 1015.88
1012.44 1012.22 1011.86 1011.37 1010.80 1010.20 1009.62 1009.14 1008.82 1008.70 1008.81 1009.16 1009.74 1010.49 1011.36 1012.27 1013.15 1013.93 1014.57 1015.06 1015.39 1015.61 1015.76 1015.88 1016.03 1016.24 1016.51 1016.85 1017.23 1017.60 1017.92 1018.15 1018.29 1018.31 1018.23 1018.07 1017.88 1017.67 1017.47 1017.30 1017.13 1016.96 1016.74 1016.45
1012.24 1011.89 1011.40 1010.80 1010.13 1009.47 1008.87 1008.39 1008.11 1008.05 1008.25 1008.70 1009.38 1010.23 1011.18 1012.15 1013.08 1013.90 1014.58 1015.10 1015.48 1015.74 1015.93 1016.10 1016.29 1016.52 1016.80 1017.13 1017.47 1017.79 1018.07 1018.26 1018.37 1018.38 1018.32 1018.21 1018.07 1017.94 1017.83 1017.73 1017.63 1017.50 1017.30 1017.02
1011.95 1011.47 1010.87 1010.20 1009.50 1008.83 1008.26 1007.85 1007.65 1007.68 1007.97 1008.50 1009.24 1010.14 1011.12 1012.11 1013.05 1013.89 1014.59 1015.15 1015.57 1015.88 1016.13 1016.34 1016.56 1016.81 1017.08 1017.37 1017.66 1017.92 1018.13 1018.27 1018.34 1018.34 1018.30 1018.24 1018.18 1018.13 1018.11 1018.09 1018.06 1017.99 1017.82 1017.55
1011.53 1010.93 1010.25 1009.54 1008.85 1008.24 1007.76 1007.45 1007.35 1007.49 1007.87 1008.47 1009.25 1010.16 1011.14 1012.12 1013.05 1013.89 1014.61 1015.19 1015.65 1016.02 1016.32 1016.58 1016.83 1017.08 1017.34 1017.59 1017.81 1018.01 1018.15 1018.23 1018.27 1018.26 1018.25 1018.23 1018.24 1018.28 1018.34 1018.40 1018.44 1018.41 1018.28 1018.01
1010.93 1010.22 1009.49 1008.79 1008.16 1007.65 1007.30 1007.13 1007.17 1007.42 1007.89 1008.54 1009.34 1010.25 1011.21 1012.16 1013.07 1013.90 1014.62 1015.23 1015.73 1016.15 1016.50 1016.80 1017.08 1017.33 1017.57 1017.78 1017.95 1018.08 1018.16 1018.20 1018.21 1018.21 1018.21 1018.24 1018.31 1018.42 1018.55 1018.67 1018.76 1018.76 1018.65 1018.39
1010.11 1009.34 1008.61 1007.97 1007.44 1007.08 1006.88 1006.88 1007.06 1007.44 1007.99 1008.68 1009.50 1010.39 1011.31 1012.23 1013.10 1013.90 1014.62 1015.25 1015.79 1016.25 1016.64 1016.98 1017.28 1017.54 1017.75 1017.93 1018.05 1018.13 1018.18 1018.19 1018.19 1018.20 1018.23 1018.30 1018.42 1018.58 1018.76 1018.92 1019.02 1019.04 1018.93 1018.68
1009.09 1008.32 1007.64 1007.10 1006.73 1006.54 1006.53 1006.70 1007.04 1007.53 1008.16 1008.90 1009.71 1010.57 1011.45 1012.32 1013.15 1013.93 1014.63 1015.27 1015.83 1016.32 1016.74 1017.11 1017.42 1017.67 1017.88 1018.03 1018.13 1018.18 1018.21 1018.21 1018.22 1018.25 1018.32 1018.43 1018.58 1018.77 1018.96 1019.13 1019.24 1019.25 1019.13 1018.87
1007.93 1007.22 1006.67 1006.29 1006.11 1006.11 1006.30 1006.64 1007.13 1007.73 1008.42 1009.18 1009.98 1010.81 1011.65 1012.46 1013.24 1013.98 1014.67 1015.30 1015.86 1016.37 1016.81 1017.18 1017.50 1017.75 1017.94 1018.08 1018.17 1018.21 1018.24 1018.26 1018.29 1018.35 1018.45 1018.59 1018.76 1018.96 1019.15 1019.31 1019.40 1019.39 1019.25 1018.98
1006.74 1006.18 1005.80 1005.62 1005.65 1005.86 1006.24 1006.74 1007.35 1008.04 1008.77 1009.54 1010.32 1011.11 1011.89 1012.65 1013.39 1014.09 1014.75 1015.37 1015.92 1016.42 1016.86 1017.23 1017.53 1017.78 1017.96 1018.09 1018.17 1018.23 1018.27 1018.32 1018.38 1018.47 1018.59 1018.75 1018.94 1019.13 1019.30 1019.44 1019.49 1019.46 1019.30 1019.03
1005.66 1005.29 1005.13 1005.17 1005.41 1005.82 1006.37 1007.01 1007.71 1008.45 1009.20 1009.96 1010.71 1011.45 1012.18 1012.89 1013.58 1014.25 1014.88 1015.47 1016.01 1016.50 1016.92 1017.27 1017.56 1017.78 1017.95 1018.07 1018.16 1018.23 1018.29 1018.36 1018.46 1018.58 1018.73 1018.90 1019.08 1019.25 1019.40 1019.50 1019.53 1019.46 1019.30 1019.03
1004.78 1004.64 1004.71 1004.98 1005.42 1006.00 1006.68 1007.41 1008.17 1008.93 1009.67 1010.40 1011.11 1011.80 1012.48 1013.15 1013.80 1014.44 1015.05 1015.62 1016.14 1016.61 1017.00 1017.33 1017.59 1017.79 1017.94 1018.05 1018.14 1018.21 1018.30 1018.40 1018.52 1018.66 1018.82 1019.00 1019.17 1019.32 1019.44 1019.50 1019.50 1019.42 1019.26 1019.01
1004.17 1004.26 1004.56 1005.02 1005.63 1006.34 1007.11 1007.89 1008.66 1009.41 1010.13 1010.81 1011.47 1012.12 1012.75 1013.39 1014.02 1014.64 1015.23 1015.79 1016.29 1016.73 1017.11 1017.41 1017.64 1017.81 1017.93 1018.03 1018.11 1018.20 1018.29 1018.41 1018.55 1018.70 1018.88 1019.05 1019.20 1019.33 1019.42 1019.45 1019.43 1019.34 1019.19 1018.98
1003.82 1004.13 1004.61 1005.24 1005.98 1006.77 1007.58 1008.37 1009.13 1009.84 1010.50 1011.13 1011.75 1012.35 1012.96 1013.57 1014.18 1014.80 1015.38 1015.93 1016.43 1016.85 1017.20 1017.47 1017.67 1017.82 1017.92 1018.00 1018.08 1018.17 1018.27 1018.40 1018.55 1018.71 1018.88 1019.04 1019.18 1019.29 1019.35 1019.36 1019.33 1019.23 1019.10 1018.92
1003.67 1004.16 1004.80 1005.54 1006.36 1007.19 1008.00 1008.77 1009.48 1010.14 1010.75 1011.33 1011.89 1012.46 1013.05 1013.65 1014.26 1014.88 1015.46 1016.01 1016.50 1016.91 1017.24 1017.49 1017.67 1017.80 1017.88 1017.95 1018.02 1018.11 1018.22 1018.35 1018.51 1018.68 1018.84 1018.99 1019.12 1019.20 1019.24 1019.24 1019.19 1019.10 1018.97 1018.83
1003.64 1004.26 1005.00 1005.82 1006.67 1007.51 1008.30 1009.03 1009.69 1010.29 1010.84 1011.37 1011.90 1012.45 1013.02 1013.61 1014.23 1014.84 1015.44 1015.98 1016.47 1016.87 1017.19 1017.42 1017.59 1017.70 1017.77 1017.84 1017.91 1018.01 1018.12 1018.27 1018.43 1018.60 1018.76 1018.90 1019.01 1019.08 1019.10 1019.08 1019.02 1018.93 1018.81 1018.68
1003.61 1004.33 1005.14 1005.99 1006.85 1007.68 1008.44 1009.12 1009.73 1010.28 1010.79 1011.28 1011.78 1012.30 1012.86 1013.45 1014.07 1014.68 1015.27 1015.81 1016.29 1016.68 1016.99 1017.22 1017.38 1017.49 1017.58 1017.65 1017.74 1017.84 1017.97 1018.13 1018.30 1018.47 1018.63 1018.77 1018.86 1018.91 1018.91 1018.88 1018.80 1018.70 1018.58 1018.44
1003.54 1004.31 1005.15 1006.02 1006.88 1007.68 1008.41 1009.05 1009.62 1010.14 1010.61 1011.08 1011.56 1012.06 1012.61 1013.19 1013.79 1014.39 1014.97 1015.49 1015.96 1016.35 1016.65 1016.88 1017.05 1017.18 1017.28 1017.38 1017.49 1017.62 1017.77 1017.94 1018.13 1018.30 1018.46 1018.58 1018.66 1018.69 1018.68 1018.62 1018.53 1018.41 1018.27 1018.12
1003.40 1004.19 1005.04 1005.91 1006.75 1007.54 1008.24 1008.86 1009.41 1009.90 1010.35 1010.80 1011.26 1011.76 1012.28 1012.84 1013.41 1013.99 1014.54 1015.05 1015.50 1015.88 1016.19 1016.43 1016.62 1016.77 1016.90 1017.04 1017.18 1017.34 1017.52 1017.71 1017.91 1018.08 1018.23 1018.34 1018.41 1018.42 1018.38 1018.30 1018.18 1018.04 1017.88 1017.71
1003.21 1004.00 1004.84 1005.70 1006.52 1007.29 1007.97 1008.58 1009.11 1009.59 1010.04 1010.48 1010.92 1011.40 1011.90 1012.43 1012.97 1013.51 1014.03 1014.52 1014.95 1015.33 1015.65 1015.91 1016.12 1016.31 1016.49 1016.67 1016.85 1017.04 1017.25 1017.45 1017.65 1017.82 1017.96 1018.05 1018.09 1018.08 1018.02 1017.92 1017.78 1017.61 1017.43 1017.23
1003.04 1003.79 1004.60 1005.43 1006.22 1006.97 1007.64 1008.23 1008.76 1009.24 1009.68 1010.11 1010.54 1010.99 1011.47 1011.96 1012.47 1012.98 1013.47 1013.94 1014.36 1014.74 1015.08 1015.37 1015.62 1015.86 1016.08 1016.30 1016.52 1016.74 1016.96 1017.17 1017.36 1017.51 1017.63 1017.69 1017.71 1017.67 1017.59 1017.47 1017.31 1017.14 1016.94 1016.73
1002.93 1003.62 1004.37 1005.14 1005.89 1006.60 1007.25 1007.83 1008.35 1008.82 1009.26 1009.68 1010.10 1010.53 1010.98 1011.45 1011.93 1012.41 1012.89 1013.34 1013.77 1014.17 1014.53 1014.86 1015.16 1015.45 1015.71 1015.97 1016.21 1016.45 1016.67 1016.86 1017.03 1017.15 1017.24 1017.27 1017.25 1017.19 1017.09 1016.97 1016.81 1016.64 1016.45 1016.26
1002.91 1003.51 1004.18 1004.86 1005.55 1006.20 1006.80 1007.36 1007.86 1008.32 1008.75 1009.16 1009.58 1010.00 1010.44 1010.89 1011.36 1011.83 1012.30 1012.77 1013.21 1013.64 1014.04 1014.41 1014.76 1015.09 1015.39 1015.67 1015.92 1016.15 1016.35 1016.52 1016.64 1016.73 1016.77 1016.76 1016.72 1016.65 1016.54 1016.43 1016.29 1016.15 1016.00 1015.84
1002.99 1003.46 1004.01 1004.59 1005.17 1005.75 1006.29 1006.80 1007.27 1007.72 1008.14 1008.55 1008.96 1009.38 1009.82 1010.28 1010.75 1011.24 1011.73 1012.22 1012.70 1013.17 1013.61 1014.02 1014.41 1014.76 1015.08 1015.37 1015.61 1015.81 1015.97 1016.09 1016.17 1016.20 1016.20 1016.16 1016.11 1016.03 1015.95 1015.87 1015.78 1015.70 1015.61 1015.52
1003.11 1003.45 1003.85 1004.29 1004.77 1005.24 1005.71 1006.16 1006.59 1007.02 1007.43 1007.84 1008.26 1008.70 1009.16 1009.64 1010.14 1010.65 1011.18 1011.71 1012.23 1012.73 1013.21 1013.66 1014.07 1014.43 1014.75 1015.01 1015.23 1015.39 1015.49 1015.56 1015.58 1015.57 1015.53 1015.48 1015.42 1015.37 1015.33 1015.30 1015.29 1015.30 1015.30 1015.30
Thickness
5769 5780 5783 5784 5787 5789 5779 5771 5760 5766 5770 5781 5789 5792 5794 5794 5792 5789 5787 5786 5784 5781 5778 5776 5774 5772 5771 5768 5765 5762 5757 5752 5748 5746 5744 5741 5737 5735 5732 5729 5726 5723 5720 5717
5761 5777 5780 5780 5787 5788 5785 5782 5777 5776 5774 5791 5796 5795 5792 5790 5789 5784 5783 5782 5780 5778 5776 5773 5770 5767 5765 5762 5759 5756 5751 5747 5744 5741 5737 5734 5731 5728 5725 5721 5718 5715 5712 5709
5739 5759 5766 5757 5776 5782 5780 5784 5780 5770 5778 5789 5787 5789 5790 5789 5787 5785 5783 5780 5778 5776 5773 5771 5768 5764 5760 5758 5754 5750 5745 5741 5738 5735 5731 5727 5725 5721 5717 5713 5710 5707 5704 5702
5730 5740 5732 5757 5784 5787 5782 5782 5787 5786 5789 5792 5792 5793 5794 5793 5789 5785 5783 5780 5776 5774 5771 5769 5766 5762 5757 5753 5748 5743 5739 5736 5733 5729 5724 5720 5717 5713 5710 5707 5703 5700 5697 5695
5719 5721 5732 5759 5778 5780 5771 5770 5784 5784 5788 5790 5791 5785 5782 5789 5790 5786 5782 5780 5777 5773 5769 5765 5762 5757 5751 5746 5741 5737 5733 5730 5727 5723 5718 5714 5710 5706 5703 5699 5696 5693 5690 5688
5718 5716 5717 5746 5777 5788 5776 5756 5779 5782 5783 5785 5783 5764 5768 5783 5784 5781 5778 5776 5771 5767 5763 5758 5754 5751 5745 5739 5735 5731 5728 5725 5721 5717 5713 5708 5704 5700 5696 5693 5689 5686 5683 5680
5713 5712 5725 5758 5776 5780 5747 5749 5775 5780 5780 5780 5776 5776 5780 5781 5778 5775 5772 5769 5765 5760 5755 5752 5749 5745 5738 5733 5728 5726 5723 5719 5715 5711 5707 5703 5698 5694 5690 5686 5682 5678 5675 5672
5707 5706 5718 5760 5765 5755 5754 5770 5774 5776 5778 5778 5777 5779 5778 5775 5771 5768 5764 5761 5757 5751 5747 5745 5743 5738 5731 5726 5724 5721 5716 5711 5707 5704 5701 5697 5691 5687 5682 5678 5673 5669 5665 5662
5715 5721 5742 5756 5758 5765 5767 5766 5770 5771 5774 5775 5772 5771 5770 5766 5763 5760 5757 5754 5750 5744 5739 5737 5735 5731 5724 5720 5718 5714 5709 5703 5699 5696 5693 5689 5684 5679 5674 5669 5664 5660 5655 5652
5717 5729 5742 5751 5758 5762 5765 5765 5768 5770 5771 5771 5765 5764 5761 5758 5754 5751 5749 5746 5742 5737 5731 5727 5726 5724 5719 5715 5711 5706 5699 5694 5691 5687 5683 5680 5676 5671 5666 5660 5656 5652 5647 5643
5710 5724 5734 5743 5750 5755 5759 5762 5763 5763 5764 5763 5760 5757 5755 5751 5747 5745 5742 5739 5735 5729 5724 5721 5718 5715 5712 5708 5704 5698 5692 5688 5683 5679 5675 5670 5667 5663 5658 5653 5650 5645 5641 5637
5702 5717 5720 5729 5743 5750 5751 5752 5754 5755 5754 5756 5755 5750 5749 5745 5742 5739 5734 5731 5726 5722 5717 5713 5710 5707 5703 5701 5697 5691 5684 5680 5675 5671 5667 5662 5658 5654 5651 5647 5644 5641 5637 5632
5711 5721 5724 5731 5738 5742 5743 5745 5747 5748 5747 5745 5746 5745 5741 5735 5733 5731 5727 5723 5719 5715 5711 5707 5703 5700 5696 5694 5690 5684 5679 5674 5669 5665 5660 5655 5651 5646 5641 5638 5636 5633 5630 5626
5715 5718 5717 5722 5726 5732 5735 5737 5738 5738 5738 5738 5738 5736 5733 5727 5724 5721 5718 5716 5713 5709 5705 5701 5696 5693 5691 5687 5683 5678 5673 5669 5663 5658 5654 5649 5644 5639 5635 5630 5626 5623 5621 5618
5708 5711 5712 5716 5719 5721 5724 5726 5724 5723 5725 5725 5727 5726 5723 5718 5715 5712 5711 5709 5705 5701 5697 5693 5689 5686 5684 5681 5676 5671 5666 5661 5656 5652 5647 5642 5638 5634 5629 5624 5619 5615 5611 5609
5700 5704 5707 5707 5708 5710 5712 5713 5712 5711 5712 5714 5714 5714 5713 5710 5708 5705 5703 5700 5695 5691 5688 5685 5682 5680 5678 5674 5670 5665 5660 5657 5652 5646 5641 5636 5632 5627 5622 5618 5613 5609 5604 5601
5689 5690 5693 5695 5698 5701 5702 5703 5703 5702 5704 5705 5704 5704 5703 5700 5697 5694 5693 5692 5689 5686 5683 5680 5677 5675 5672 5668 5663 5658 5653 5650 5647 5641 5635 5631 5626 5622 5617 5613 5608 5604 5600 5597
5691 5691 5693 5692 5692 5693 5695 5697 5696 5697 5696 5699 5698 5696 5694 5691 5687 5686 5685 5684 5680 5677 5675 5674 5672 5668 5665 5661 5657 5652 5647 5643 5639 5634 5629 5625 5621 5617 5612 5608 5604 5600 5596 5592
5687 5687 5688 5689 5689 5690 5690 5690 5690 5690 5691 5691 5690 5689 5687 5685 5683 5680 5679 5676 5672 5668 5668 5668 5666 5662 5658 5655 5652 5647 5642 5638 5633 5628 5624 5621 5616 5612 5607 5603 5599 5595 5591 5587
5682 5683 5683 5683 5685 5684 5684 5685 5685 5684 5685 5685 5683 5680 5677 5676 5674 5672 5670 5668 5667 5666 5664 5662 5658 5655 5652 5649 5646 5641 5637 5632 5627 5623 5619 5615 5611 5607 5603 5599 5595 5591 5587 5583
5675 5675 5676 5677 5678 5679 5680 5680 5680 5679 5679 5679 5676 5672 5671 5670 5669 5666 5663 5660 5661 5661 5659 5656 5652 5649 5646 5643 5640 5635 5631 5626 5622 5618 5614 5609 5605 5601 5597 5594 5590 5587 5583 5579
5668 5669 5669 5670 5671 5671 5673 5674 5674 5674 5672 5671 5669 5667 5664 5663 5662 5660 5658 5657 5657 5656 5653 5649 5647 5644 5641 5637 5633 5629 5625 5621 5616 5612 5608 5604 5600 5596 5592 5589 5585 5582 5579 5575
5661 5663 5663 5663 5664 5664 5665 5667 5667 5667 5665 5664 5663 5661 5660 5659 5657 5653 5650 5651 5651 5649 5646 5643 5641 5638 5635 5631 5627 5623 5619 5615 5611 5608 5603 5599 5596 5592 5588 5584 5581 5578 5574 5571
5655 5656 5657 5658 5658 5657 5655 5658 5659 5660 5659 5658 5658 5657 5655 5652 5649 5649 5648 5647 5644 5642 5639 5636 5634 5631 5627 5623 5620 5616 5612 5609 5606 5603 5599 5595 5591 5587 5584 5580 5576 5573 5570 5567
5648 5649 5650 5650 5649 5649 5650 5651 5651 5651 5651 5651 5650 5650 5649 5647 5644 5642 5641 5640 5637 5634 5631 5629 5627 5624 5620 5617 5614 5610 5607 5604 5601 5597 5594 5590 5586 5582 5579 5575 5572 5568 5565 5561
5640 5640 5642 5643 5643 5643 5643 5643 5642 5642 5642 5642 5642 5642 5641 5640 5639 5637 5634 5632 5630 5627 5624 5621 5619 5616 5613 5611 5608 5605 5602 5599 5596 5592 5589 5585 5581 5577 5574 5570 5567 5563 5560 5556
5633 5634 5634 5635 5637 5637 5638 5637 5636 5636 5636 5636 5634 5634 5634 5633 5631 5629 5627 5625 5622 5620 5617 5615 5613 5610 5607 5605 5602 5599 5596 5593 5590 5587 5583 5580 5576 5572 5569 5566 5562 5558 5554 5551